Weather History for Frederick, OK

Change the Weather History Date:

Tuesday, July 9, 2013

  Actual Average (KLTS) Record (KLTS)
Temperature  
Mean Temperature 88 °F -  
Max Temperature 104 °F 94 °F 111 °F (2011)
Min Temperature 75 °F 70 °F 69 °F (1996)
Cooling Degree Days 24    
Growing Degree Days 38 (Base 50)    
Moisture  
Dew Point 61 °F    
Average Humidity 39    
Maximum Humidity 62    
Minimum Humidity 23    
Precipitation  
Precipitation 0.00 in - - ()
Sea Level Pressure  
Sea Level Pressure 29.93 in    
Wind  
Wind Speed 14 mph (SSW)    
Max Wind Speed 20 mph    
Max Gust Speed 25 mph    
Visibility 10 miles    
Events      
Averages and records for this station are not official NWS values.
T = Trace of Precipitation, MM = Missing Value Source: NWS Daily Summary

Daily Weather History Graph

Daily Weather History Graph

Search for Another Location

Airport:

Trip Planner

Search our weather history database for the weather conditions in past years. The results will help you decide how hot, cold, wet, or windy it might be!

Date:

Astronomy

Jul. 09, 2013 Rise Set
Actual Time 6:31 AM CDT 8:50 PM CDT
Civil Twilight 6:02 AM CDT 9:19 PM CDT
Nautical Twilight 5:27 AM CDT 9:55 PM CDT
Astronomical Twilight 4:48 AM CDT 10:33 PM CDT
Moon 7:51 AM CDT (7/9) 9:36 PM CDT (7/9)
Length of Visible Light 15h 17m
Length of Day
14h 19m
New Moon, 2% of the Moon is Illuminated
Jul 9
New Moon
Jul 15
First Quarter
Jul 22
Full
Jul 29
Last Quarter
Aug 6
New

Hourly Weather History & Observations

Time (CDT) Temp. Heat Index Dew Point Humidity Pressure Visibility Wind Dir Wind Speed Gust Speed Precip Events Conditions
12:53 AM 86.0 °F 87.6 °F 64.9 °F 49% 29.94 in 10.0 mi South 18.4 mph - N/A   Clear
1:53 AM 84.9 °F 86.6 °F 64.9 °F 51% 29.94 in 10.0 mi South 12.7 mph - N/A   Clear
2:53 AM 82.9 °F 84.4 °F 64.0 °F 53% 29.94 in 10.0 mi South 12.7 mph - N/A   Clear
3:53 AM 81.0 °F 82.5 °F 64.0 °F 56% 29.95 in 10.0 mi South 10.4 mph - N/A   Clear
4:53 AM 80.1 °F 81.5 °F 63.0 °F 56% 29.96 in 10.0 mi South 9.2 mph - N/A   Clear
5:53 AM 78.1 °F - 62.1 °F 58% 29.96 in 10.0 mi South 8.1 mph - N/A   Clear
6:53 AM 75.9 °F - 62.1 °F 62% 29.96 in 10.0 mi South 6.9 mph - N/A   Clear
7:53 AM 81.0 °F 82.2 °F 63.0 °F 54% 29.98 in 10.0 mi SSW 13.8 mph - N/A   Clear
8:53 AM 84.9 °F 85.9 °F 63.0 °F 48% 29.99 in 10.0 mi SSW 17.3 mph - N/A   Clear
9:53 AM 89.1 °F 89.3 °F 62.1 °F 40% 29.99 in 10.0 mi SW 16.1 mph 24.2 mph N/A   Clear
10:53 AM 93.0 °F 93.0 °F 61.0 °F 34% 29.99 in 10.0 mi SW 19.6 mph 23.0 mph N/A   Clear
11:53 AM 95.0 °F 94.8 °F 60.1 °F 31% 29.99 in 10.0 mi SW 15.0 mph 19.6 mph N/A   Clear
12:53 PM 98.1 °F 98.1 °F 60.1 °F 28% 29.97 in 10.0 mi SSW 15.0 mph 20.7 mph N/A   Clear
1:53 PM 100.0 °F 100.7 °F 60.1 °F 27% 29.95 in 10.0 mi SW 12.7 mph 20.7 mph N/A   Partly Cloudy
2:53 PM 100.0 °F 100.2 °F 59.0 °F 26% 29.92 in 10.0 mi SSW 11.5 mph - N/A   Clear
3:53 PM 100.9 °F 101.6 °F 60.1 °F 26% 29.91 in 10.0 mi SSW 11.5 mph - N/A   Partly Cloudy
4:53 PM 100.9 °F 101.6 °F 60.1 °F 26% 29.88 in 10.0 mi South 17.3 mph 24.2 mph N/A   Scattered Clouds
5:53 PM 102.0 °F 101.6 °F 57.9 °F 23% 29.88 in 10.0 mi South 15.0 mph 25.3 mph N/A   Mostly Cloudy
6:53 PM 102.0 °F 101.6 °F 57.9 °F 23% 29.86 in 10.0 mi South 17.3 mph - N/A   Clear
7:53 PM 99.0 °F 98.1 °F 57.0 °F 25% 29.86 in 10.0 mi South 13.8 mph - N/A   Clear
8:53 PM 96.1 °F 94.5 °F 55.9 °F 26% 29.86 in 10.0 mi South 9.2 mph - N/A   Clear
9:53 PM 91.0 °F 89.7 °F 57.0 °F 32% 29.88 in 10.0 mi South 8.1 mph - N/A   Clear
10:53 PM 87.1 °F 86.1 °F 57.9 °F 37% 29.90 in 10.0 mi SSE 8.1 mph - N/A   Clear
11:53 PM 87.1 °F 85.9 °F 57.0 °F 36% 29.91 in 10.0 mi South 10.4 mph - N/A   Clear